[[{"header":{"parameterUnit":"m.s-1","parameterCategory":2,"la1":30.2991,"la2":30.254,"lo1":-89.0895,"lo2":-89.0444,"dy":0.0017,"dx":0.0017,"nx":28,"ny":28,"refTime":"2024-02-29T03:00:00:Z","depth":"0","parameterNumber":2,"parameterNumberName":"U-component_of_CURRENTS"},"data":[0,0,0,0,0,0,0,0,0,0,0,0,0,0,0,0,0,0,0,0,0,0,0,0,0,0,0,0,0,0,0,0,0,0,0,0,0,0,0,0,0,0,0,0,0,0,0,0,0,0,0,0,0,0,0,0,0,0,0.1867,0.1867,0,0.1894,0.1894,0.1894,0.1889,0.1889,0.1889,0.1889,0.1882,0.1882,0.1882,0,0,0,0,0,0,0,0,0,0,0,0,0,0.1816,0.1816,0.1867,0.1867,0.1868,0.1894,0.1894,0.1894,0.189,0.1889,0.1889,0.1889,0.1882,0.1882,0.1882,0,0,0,0,0,0,0,0,0,0,0,0,0,0.1838,0.1817,0.1866,0.187,0.1871,0.1894,0.1894,0.1894,0.189,0.1889,0.1889,0.1888,0.1882,0.1882,0.1882,0.1891,0,0,0.1883,0.1883,0,0,0,0,0,0,0,0,0.1836,0.1839,0.1869,0.187,0.1871,0.189,0.1874,0.1892,0.189,0.188,0.1889,0.1888,0.1884,0.1884,0.1887,0.1891,0.189,0.1883,0.1883,0.1883,0.1883,0,0,0,0,0,0,0,0.1835,0.1838,0.1875,0.187,0.1871,0.1873,0.1875,0.1878,0.1881,0.1881,0.1881,0.1888,0.1884,0.1887,0.1886,0.189,0.1883,0.1883,0.1883,0.1883,0.1916,0.1917,0,0,0,0,0,0,0.1837,0.1837,0.1874,0.1876,0.1855,0.1874,0.1877,0.1882,0.1882,0.1882,0.1889,0.1888,0.1887,0.1886,0.1886,0.1914,0.1883,0.1883,0.1883,0.1915,0.1916,0.1917,0,0,0,0,0,0,0.1835,0.184,0.1873,0.1859,0.1864,0.1876,0.1882,0.1883,0.1889,0.1889,0.1888,0.1894,0.1886,0.1886,0.1894,0.1913,0.1883,0.1883,0.1914,0.1916,0.1917,0.1959,0,0,0,0,0,0,0.1834,0.1839,0.1842,0.1859,0.1865,0.1892,0.1883,0.1884,0.1895,0.1895,0.1893,0.1892,0.1886,0.1894,0.1894,0.1913,0.1883,0.1913,0.1915,0.1916,0.1956,0.1961,0.1966,0,0,0,0,0,0.1832,0.1839,0.1842,0.1847,0.1869,0.1893,0.1896,0.1901,0.1896,0.1904,0.1902,0.1892,0.1904,0.1894,0.1894,0.1914,0.1913,0.1915,0.1916,0.1954,0.196,0.1966,0,0,0,0,0,0,0.1815,0.184,0.1844,0.1857,0.1877,0.1893,0.1902,0.1905,0.191,0.1908,0.1901,0.19,0.1916,0.1908,0.1898,0.1928,0.1907,0.1909,0.1936,0.1942,0.1946,0.1952,0.1883,0,0,0,0,0,0.1815,0.1828,0.1852,0.1863,0.1874,0.1888,0.1898,0.1905,0.1913,0.1915,0.1914,0.1915,0.1924,0.1927,0.193,0.1945,0.1947,0.1958,0.1962,0.1966,0.1971,0.1993,0.2,0.1923,0.1923,0.1923,0,0,0.181,0.1827,0.1833,0.186,0.1875,0.1897,0.1893,0.1913,0.1928,0.1914,0.1928,0.193,0.1931,0.1949,0.1956,0.1945,0.1991,0.1969,0.1972,0.1975,0.1995,0.2003,0.201,0.1925,0.1924,0.1924,0,0,0.1814,0.1826,0.184,0.1859,0.1889,0.1903,0.1911,0.1932,0.1939,0.1957,0.1953,0.1967,0.1973,0.1983,0.1988,0.2019,0.2014,0.202,0.2049,0.207,0.2077,0.2082,0.2101,0.2108,0.2023,0.2023,0.2023,0,0.1807,0.183,0.1848,0.187,0.1886,0.1908,0.1928,0.1945,0.1964,0.1972,0.1966,0.1992,0.1992,0.2022,0.2035,0.2031,0.204,0.2028,0.2077,0.2082,0.2087,0.2105,0.2112,0.2025,0.2025,0.2025,0.2025,0,0.1825,0.1843,0.1855,0.1891,0.1911,0.1933,0.1961,0.1979,0.199,0.2005,0.2033,0.204,0.2054,0.2062,0.2059,0.21,0.2094,0.208,0.2063,0.2098,0.2114,0.2121,0.2028,0.2028,0.2027,0.2026,0,0,0.1805,0.1858,0.186,0.188,0.1922,0.1942,0.1973,0.2008,0.2031,0.2052,0.2079,0.2103,0.2108,0.2114,0.2117,0.214,0.2187,0.213,0.213,0.2149,0.2238,0.2241,0.2248,0.2184,0.2185,0.2186,0.2236,0,0.1813,0.1853,0.1877,0.1914,0.1938,0.1967,0.1997,0.203,0.2055,0.2088,0.2109,0.2136,0.2128,0.2141,0.2165,0.2181,0.2207,0.2175,0.22,0.2201,0.22,0.2256,0.2189,0.2229,0.2243,0.2244,0.2245,0,0.1817,0.1848,0.1882,0.1931,0.1944,0.1969,0.2017,0.2051,0.2102,0.2119,0.2151,0.2167,0.221,0.2194,0.2246,0.2227,0.2238,0.2249,0.2251,0.2243,0.2217,0.2195,0.224,0.2195,0.2255,0.2254,0.2254,0,0.1794,0.1846,0.1873,0.189,0.1952,0.1969,0.2005,0.2056,0.2076,0.2143,0.216,0.2212,0.2237,0.2264,0.229,0.2271,0.2347,0.2316,0.233,0.233,0.2272,0.2265,0.2277,0.2355,0.2355,0.2355,0.2355,0,0.1788,0.1808,0.1865,0.1881,0.1908,0.1963,0.1993,0.2036,0.2089,0.212,0.2175,0.2208,0.2257,0.2301,0.2314,0.2355,0.2365,0.2353,0.2351,0.2286,0.228,0.2236,0.2214,0.2357,0.2356,0.2356,0.2356,0,0.1751,0.1791,0.1821,0.1883,0.1894,0.1916,0.1962,0.1991,0.2055,0.2098,0.2119,0.2208,0.2285,0.2331,0.2391,0.2387,0.2365,0.243,0.2354,0.2343,0.2301,0.2284,0.2219,0.214,0.245,0.245,0.2451,0,0.1735,0.175,0.1798,0.1807,0.183,0.1864,0.1885,0.1954,0.1988,0.2095,0.2118,0.2216,0.2278,0.2381,0.2426,0.2472,0.2384,0.2411,0.2361,0.2311,0.229,0.2195,0.2125,0.23,0.2299,0.2298,0.2298,0,0.1699,0.1714,0.1736,0.1757,0.1776,0.1789,0.1835,0.1846,0.1945,0.1993,0.208,0.2142,0.2287,0.2331,0.2417,0.2428,0.2306,0.2399,0.2361,0.2198,0.2079,0.1997,0.2256,0.2292,0.2292,0.2293,0.2293,0.2293,0.1658,0.166,0.1689,0.1697,0.1714,0.1718,0.1707,0.1772,0.181,0.1882,0.1998,0.208,0.2208,0.2339,0.2339,0.2326,0.2291,0.2252,0.2243,0.2157,0.2054,0.2309,0.2335,0.2336,0.2336,0.2337,0.2338,0,0.161,0.162,0.1629,0.1635,0.1622,0.1653,0.1673,0.166,0.1685,0.1806,0.1876,0.2018,0.2088,0.2178,0.2255,0.2184,0.2058,0.2114,0.1955,0.1897,0.2146,0.2114,0.2074,0.2074,0.2075,0.2075,0.2075,0.2075,0.1588,0.1579,0.1582,0.154,0.1538,0.1496,0.1486,0.1486,0.1554,0.1631,0.173,0.1839,0.2039,0.218,0.2158,0.2092,0.1903,0.1834,0.18,0.1988,0.1999,0.2009,0.1973,0.1905,0.1905,0.1459,0.1456,0.1453]},{"header":{"parameterUnit":"m.s-1","parameterCategory":2,"la1":30.2991,"la2":30.254,"lo1":-89.0895,"lo2":-89.0444,"dy":0.0017,"dx":0.0017,"nx":28,"ny":28,"refTime":"2024-02-29T03:00:00:Z","depth":"0","parameterNumber":3,"parameterNumberName":"V-component_of_CURRENTS"},"data":[0,0,0,0,0,0,0,0,0,0,0,0,0,0,0,0,0,0,0,0,0,0,0,0,0,0,0,0,0,0,0,0,0,0,0,0,0,0,0,0,0,0,0,0,0,0,0,0,0,0,0,0,0,0,0,0,0,0,-0.033,-0.0331,0,-0.0401,-0.0402,-0.0403,-0.0446,-0.0446,-0.0446,-0.0447,-0.0514,-0.0516,-0.0518,0,0,0,0,0,0,0,0,0,0,0,0,0,-0.0265,-0.0266,-0.033,-0.0331,-0.0332,-0.0401,-0.0402,-0.0403,-0.0446,-0.0446,-0.0447,-0.0447,-0.0514,-0.0516,-0.0518,0,0,0,0,0,0,0,0,0,0,0,0,0,-0.0311,-0.0266,-0.033,-0.0361,-0.0365,-0.0401,-0.0402,-0.0403,-0.0446,-0.0446,-0.0447,-0.0447,-0.0513,-0.0516,-0.0518,-0.0527,0,0,-0.0525,-0.0526,0,0,0,0,0,0,0,0,-0.0308,-0.0313,-0.0356,-0.0359,-0.0363,-0.0415,-0.0404,-0.0444,-0.0446,-0.0416,-0.0447,-0.0447,-0.048,-0.0485,-0.0499,-0.0531,-0.0534,-0.0526,-0.0527,-0.0528,-0.0529,0,0,0,0,0,0,0,-0.0305,-0.031,-0.0358,-0.0357,-0.0361,-0.0383,-0.039,-0.0412,-0.0446,-0.0418,-0.0421,-0.0429,-0.0482,-0.0496,-0.0501,-0.0535,-0.0526,-0.0528,-0.0529,-0.053,-0.0582,-0.0582,0,0,0,0,0,0,-0.0293,-0.0307,-0.0356,-0.0361,-0.0335,-0.0384,-0.0391,-0.0398,-0.0446,-0.0453,-0.0428,-0.043,-0.0492,-0.0498,-0.0503,-0.0514,-0.0528,-0.053,-0.0532,-0.0582,-0.0582,-0.0582,0,0,0,0,0,0,-0.0292,-0.0297,-0.0353,-0.0335,-0.0344,-0.0385,-0.0392,-0.0399,-0.0412,-0.0453,-0.0461,-0.0434,-0.0492,-0.05,-0.0526,-0.0517,-0.0532,-0.0534,-0.0582,-0.0582,-0.0582,-0.0539,0,0,0,0,0,0,-0.0289,-0.0296,-0.0294,-0.0334,-0.0345,-0.0369,-0.0392,-0.0401,-0.0416,-0.042,-0.046,-0.0467,-0.0493,-0.0522,-0.0528,-0.0521,-0.0536,-0.0582,-0.0582,-0.0582,-0.054,-0.0537,-0.0534,0,0,0,0,0,-0.0287,-0.0282,-0.0294,-0.03,-0.0342,-0.0369,-0.0376,-0.0406,-0.0416,-0.0419,-0.0451,-0.0466,-0.0525,-0.0524,-0.0532,-0.0525,-0.0582,-0.0582,-0.0582,-0.0541,-0.0538,-0.0534,0,0,0,0,0,0,-0.025,-0.0287,-0.0301,-0.0306,-0.0333,-0.0376,-0.0379,-0.0401,-0.0429,-0.0431,-0.0469,-0.0478,-0.0496,-0.0518,-0.0516,-0.0539,-0.0554,-0.0556,-0.0521,-0.0518,-0.0515,-0.0492,-0.0538,0,0,0,0,0,-0.0241,-0.0248,-0.0287,-0.0289,-0.03,-0.0338,-0.0352,-0.0373,-0.0404,-0.0417,-0.0447,-0.0476,-0.0501,-0.0515,-0.054,-0.0554,-0.0561,-0.0554,-0.0551,-0.0548,-0.0535,-0.0546,-0.0543,-0.0581,-0.0581,-0.0581,0,0,-0.0228,-0.0248,-0.0252,-0.0282,-0.0304,-0.0314,-0.0347,-0.0363,-0.037,-0.0419,-0.0434,-0.0467,-0.0503,-0.0521,-0.053,-0.0538,-0.0539,-0.0548,-0.0545,-0.0533,-0.0545,-0.0542,-0.0538,-0.0581,-0.0581,-0.0581,0,0,-0.0202,-0.0221,-0.0218,-0.0237,-0.0266,-0.0291,-0.0293,-0.0333,-0.0349,-0.0373,-0.0407,-0.0435,-0.0473,-0.0499,-0.0517,-0.0512,-0.0523,-0.0518,-0.0485,-0.0496,-0.0493,-0.049,-0.0484,-0.0481,-0.0517,-0.0516,-0.0516,0,-0.0183,-0.0186,-0.022,-0.0222,-0.023,-0.0276,-0.0272,-0.0297,-0.0341,-0.0346,-0.0369,-0.0424,-0.0462,-0.0478,-0.0482,-0.0504,-0.0504,-0.0495,-0.0491,-0.0488,-0.0486,-0.0481,-0.0478,-0.0514,-0.0515,-0.0515,-0.0515,0,-0.0158,-0.016,-0.0158,-0.0176,-0.0188,-0.0193,-0.023,-0.0242,-0.0268,-0.0294,-0.0317,-0.0374,-0.0402,-0.0423,-0.0455,-0.0456,-0.0459,-0.0485,-0.0496,-0.0479,-0.0476,-0.0473,-0.0511,-0.0512,-0.0513,-0.0513,0,0,-0.0115,-0.0137,-0.0135,-0.0131,-0.0163,-0.0168,-0.0174,-0.0192,-0.0184,-0.0237,-0.0229,-0.0296,-0.0324,-0.0346,-0.039,-0.0409,-0.0405,-0.0436,-0.0437,-0.0422,-0.041,-0.0419,-0.0418,-0.0427,-0.0427,-0.0426,-0.0411,0,-0.0083,-0.0071,-0.0092,-0.0076,-0.0072,-0.0105,-0.0101,-0.0121,-0.0147,-0.0153,-0.0213,-0.0231,-0.0295,-0.0308,-0.0337,-0.0385,-0.0397,-0.0405,-0.0435,-0.0436,-0.044,-0.0415,-0.0407,-0.0393,-0.0409,-0.0409,-0.0408,0,-0.005,-0.0046,-0.0022,-0.0018,-0.0017,-0.0011,-0.0004,-0.001,-0.0034,-0.0054,-0.0088,-0.0132,-0.0172,-0.0229,-0.0293,-0.0292,-0.0341,-0.0384,-0.0385,-0.0404,-0.044,-0.0415,-0.0389,-0.0507,-0.0405,-0.0405,-0.0406,0,0.0002,0.0006,0.0031,0.0029,0.0025,0.0042,0.004,0.0027,0.0038,0.001,0.0015,-0.0044,-0.0063,-0.0137,-0.0235,-0.0257,-0.0296,-0.034,-0.039,-0.039,-0.0394,-0.0396,-0.0479,-0.0374,-0.0374,-0.0374,-0.0374,0,0.0044,0.0065,0.006,0.0075,0.0115,0.0096,0.0136,0.0123,0.0127,0.0156,0.0072,0.0085,-0.0041,-0.0086,-0.0185,-0.027,-0.0257,-0.0368,-0.0385,-0.0379,-0.038,-0.0493,-0.0569,-0.0373,-0.0373,-0.0373,-0.0374,0,0.0097,0.0091,0.0122,0.0133,0.0141,0.0171,0.0195,0.0226,0.0213,0.0253,0.025,0.0197,0.0136,0.0014,-0.0093,-0.0194,-0.0353,-0.0321,-0.0297,-0.0313,-0.0481,-0.0554,-0.0648,-0.0705,-0.0367,-0.0367,-0.0368,0,0.0124,0.0146,0.0171,0.0196,0.0205,0.0239,0.0271,0.0269,0.0302,0.0327,0.0357,0.0316,0.0298,0.0135,-0.005,-0.0205,-0.0338,-0.0309,-0.0364,-0.0476,-0.057,-0.063,-0.0675,-0.0347,-0.0347,-0.0347,-0.0347,0,0.0178,0.0188,0.0213,0.0264,0.0302,0.0342,0.0385,0.0427,0.0444,0.0482,0.0534,0.0531,0.0374,0.022,-0.0008,-0.0134,-0.04,-0.0313,-0.0438,-0.0563,-0.0623,-0.069,-0.0365,-0.0346,-0.0347,-0.0347,-0.0347,-0.0347,0.0221,0.025,0.0283,0.0333,0.0378,0.0442,0.0485,0.0543,0.0615,0.0679,0.0673,0.0683,0.0449,0.0138,-0.0044,-0.0383,-0.0402,-0.0493,-0.0568,-0.0616,-0.0687,-0.0352,-0.0355,-0.0355,-0.0355,-0.0355,-0.0355,0,0.027,0.0299,0.0348,0.0405,0.0461,0.0475,0.0559,0.0611,0.0706,0.0768,0.081,0.0709,0.0416,0.0102,-0.0345,-0.0591,-0.0696,-0.0733,-0.0824,-0.0857,-0.0559,-0.0577,-0.0616,-0.0616,-0.0616,-0.0615,-0.0615,-0.0615,0.0297,0.0349,0.037,0.0463,0.0506,0.0582,0.0633,0.0716,0.0774,0.0844,0.085,0.0834,0.0601,-0.0172,-0.0733,-0.0866,-0.1052,-0.1086,-0.1186,-0.0997,-0.0981,-0.0966,-0.1,-0.1127,-0.1128,-0.1448,-0.1451,-0.1454]}],[{"header":{"parameterUnit":"m.s-1","parameterCategory":2,"la1":30.2991,"la2":30.254,"lo1":-89.0895,"lo2":-89.0444,"dy":0.0017,"dx":0.0017,"nx":28,"ny":28,"refTime":"2024-02-29T03:00:00:Z","depth":"2","parameterNumber":2,"parameterNumberName":"U-component_of_CURRENTS"},"data":[0,0,0,0,0,0,0,0,0,0,0,0,0,0,0,0,0,0,0,0,0,0,0,0,0,0,0,0,0,0,0,0,0,0,0,0,0,0,0,0,0,0,0,0,0,0,0,0,0,0,0,0,0,0,0,0,0,0,0.1867,0.1868,0,0.1897,0.1897,0.1897,0.1895,0.1895,0.1895,0.1895,0.191,0.191,0.191,0,0,0,0,0,0,0,0,0,0,0,0,0,0.181,0.181,0.1867,0.1868,0.1869,0.1897,0.1897,0.1897,0.1895,0.1895,0.1895,0.1895,0.1909,0.191,0.1911,0,0,0,0,0,0,0,0,0,0,0,0,0,0.1833,0.1811,0.1867,0.1874,0.1875,0.1897,0.1897,0.1897,0.1895,0.1895,0.1895,0.1895,0.1909,0.191,0.1911,0.1917,0,0,0.1913,0.1913,0,0,0,0,0,0,0,0,0.1832,0.1834,0.1872,0.1873,0.1875,0.1896,0.1883,0.1905,0.1895,0.1883,0.1895,0.1895,0.1906,0.1907,0.1908,0.1918,0.1919,0.1913,0.1913,0.1914,0.1914,0,0,0,0,0,0,0,0.183,0.1833,0.1875,0.1873,0.1875,0.1876,0.1879,0.1886,0.1892,0.1884,0.1885,0.1895,0.1906,0.1907,0.1908,0.1919,0.1913,0.1913,0.1914,0.1914,0.1969,0.197,0,0,0,0,0,0,0.1834,0.1832,0.1874,0.1876,0.1857,0.1878,0.1881,0.1886,0.1892,0.1894,0.1895,0.1895,0.1906,0.1907,0.1909,0.1949,0.1914,0.1914,0.1915,0.1968,0.1969,0.197,0,0,0,0,0,0,0.1833,0.1838,0.1873,0.1858,0.1863,0.1879,0.1885,0.1887,0.1896,0.1901,0.1902,0.1905,0.1906,0.1908,0.1926,0.1949,0.1914,0.1915,0.1967,0.1968,0.197,0.201,0,0,0,0,0,0,0.1831,0.1837,0.1842,0.1858,0.1864,0.1894,0.1886,0.1888,0.1904,0.1904,0.191,0.191,0.1906,0.1925,0.1927,0.1949,0.1916,0.1965,0.1967,0.1969,0.2008,0.2013,0.2018,0,0,0,0,0,0.1829,0.1837,0.1841,0.1847,0.187,0.1896,0.1898,0.1907,0.1905,0.1913,0.1918,0.191,0.1939,0.1926,0.1928,0.1951,0.1964,0.1967,0.1969,0.2005,0.2012,0.2018,0,0,0,0,0,0,0.1813,0.1838,0.1844,0.1858,0.188,0.1897,0.1907,0.1914,0.1924,0.1924,0.1922,0.1923,0.1949,0.1945,0.1931,0.1973,0.1951,0.1954,0.1978,0.1985,0.1989,0.1992,0.1916,0,0,0,0,0,0.1813,0.1827,0.1852,0.1866,0.1877,0.1894,0.1905,0.1914,0.1927,0.1931,0.1935,0.1944,0.1959,0.1967,0.1976,0.1997,0.1995,0.2014,0.2019,0.2023,0.2027,0.2045,0.2052,0.1978,0.1978,0.1978,0,0,0.1811,0.1829,0.1836,0.1864,0.1879,0.1901,0.1899,0.1923,0.1942,0.1932,0.1954,0.1961,0.1969,0.1994,0.2006,0.1994,0.2044,0.2026,0.203,0.2031,0.2048,0.2055,0.2062,0.1979,0.1979,0.1979,0,0,0.1817,0.183,0.1845,0.1865,0.1897,0.1912,0.1922,0.1945,0.1955,0.1982,0.1981,0.2003,0.2021,0.2033,0.2041,0.208,0.207,0.2085,0.2112,0.213,0.2136,0.2142,0.215,0.2156,0.2087,0.2087,0.2087,0,0.1812,0.1835,0.1853,0.1876,0.1895,0.1919,0.1939,0.1958,0.1984,0.1996,0.1995,0.2034,0.2041,0.2076,0.2093,0.2092,0.2096,0.2088,0.2136,0.2142,0.2146,0.2154,0.2159,0.2089,0.2089,0.2089,0.2088,0,0.1831,0.1851,0.1864,0.1899,0.1921,0.1946,0.1977,0.1997,0.2014,0.2033,0.2071,0.2085,0.2106,0.2118,0.212,0.2161,0.2151,0.214,0.212,0.2156,0.2162,0.2167,0.2092,0.2091,0.2091,0.209,0,0,0.1814,0.1866,0.187,0.189,0.1935,0.1955,0.199,0.2028,0.2054,0.2083,0.2114,0.2151,0.2159,0.217,0.2177,0.2198,0.2239,0.2188,0.2188,0.2194,0.2276,0.2261,0.2265,0.2238,0.2239,0.224,0.2266,0,0.1823,0.1864,0.1889,0.1928,0.195,0.1982,0.2015,0.2052,0.2084,0.2119,0.2146,0.2181,0.218,0.2197,0.222,0.2235,0.2255,0.2233,0.2241,0.2241,0.2222,0.2272,0.2099,0.2107,0.2271,0.2272,0.2272,0,0.1829,0.1859,0.1895,0.1945,0.1957,0.1985,0.2037,0.2073,0.2128,0.2151,0.2188,0.2208,0.2252,0.2242,0.2287,0.2273,0.2281,0.2289,0.2289,0.2265,0.2237,0.2097,0.211,0.2281,0.228,0.228,0.2279,0,0.1806,0.1859,0.1888,0.1905,0.1967,0.1987,0.2025,0.2081,0.2105,0.2174,0.2194,0.2247,0.2274,0.2296,0.2321,0.2306,0.2365,0.234,0.2332,0.233,0.2179,0.2162,0.2371,0.2371,0.237,0.237,0.237,0,0.1803,0.1823,0.188,0.1897,0.1928,0.1982,0.2019,0.2062,0.2119,0.2152,0.221,0.224,0.2291,0.2327,0.2337,0.236,0.2377,0.235,0.2344,0.2189,0.2174,0.2318,0.2311,0.2371,0.2371,0.2371,0.2371,0,0.1767,0.1808,0.1838,0.1901,0.1916,0.194,0.1993,0.2024,0.209,0.2133,0.2153,0.2238,0.2301,0.2342,0.239,0.2379,0.24,0.2401,0.2219,0.2192,0.2345,0.2341,0.2388,0.2388,0.2388,0.2388,0.2388,0,0.1754,0.1769,0.182,0.1831,0.1857,0.1896,0.192,0.1992,0.2027,0.2126,0.2145,0.223,0.2279,0.2354,0.2371,0.2394,0.2416,0.223,0.2175,0.2362,0.2351,0.2346,0.2342,0.1983,0.198,0.1977,0.1975,0,0.1722,0.174,0.1762,0.1786,0.181,0.1827,0.1876,0.1887,0.1982,0.2021,0.2092,0.2141,0.2246,0.221,0.2263,0.2248,0.2214,0.2176,0.2414,0.202,0.1986,0.1974,0.1981,0.195,0.1953,0.1954,0.1956,0.1957,0.1688,0.1691,0.1722,0.1733,0.1753,0.1759,0.1752,0.1806,0.1836,0.1881,0.1986,0.2006,0.2054,0.2062,0.2016,0.1992,0.2142,0.2025,0.203,0.2039,0.2002,0.1971,0.1925,0.1927,0.1929,0.1931,0.1932,0,0.1644,0.1657,0.1667,0.1677,0.1664,0.1698,0.1718,0.1693,0.1699,0.177,0.1812,0.1703,0.1699,0.1742,0.1684,0.1706,0.166,0.1619,0.1527,0.1555,0.1579,0.1514,0.131,0.1307,0.1305,0.1303,0,0,0.1626,0.1618,0.1621,0.1583,0.1585,0.1549,0.1539,0.1511,0.1536,0.1509,0.1511,0.1631,0.1711,0.1481,0.1468,0.1374,0.1446,0.1325,0.1833,0.1755,0.1775,0.1834,0.177,0,0,0,0,0]},{"header":{"parameterUnit":"m.s-1","parameterCategory":2,"la1":30.2991,"la2":30.254,"lo1":-89.0895,"lo2":-89.0444,"dy":0.0017,"dx":0.0017,"nx":28,"ny":28,"refTime":"2024-02-29T03:00:00:Z","depth":"2","parameterNumber":3,"parameterNumberName":"V-component_of_CURRENTS"},"data":[0,0,0,0,0,0,0,0,0,0,0,0,0,0,0,0,0,0,0,0,0,0,0,0,0,0,0,0,0,0,0,0,0,0,0,0,0,0,0,0,0,0,0,0,0,0,0,0,0,0,0,0,0,0,0,0,0,0,-0.0129,-0.0129,0,-0.0174,-0.0174,-0.0174,-0.0203,-0.0204,-0.0204,-0.0205,-0.0276,-0.0278,-0.0279,0,0,0,0,0,0,0,0,0,0,0,0,0,-0.0086,-0.0086,-0.0129,-0.0129,-0.013,-0.0174,-0.0174,-0.0174,-0.0203,-0.0204,-0.0204,-0.0205,-0.0276,-0.0278,-0.0279,0,0,0,0,0,0,0,0,0,0,0,0,0,-0.0112,-0.0086,-0.0128,-0.0152,-0.0154,-0.0173,-0.0174,-0.0174,-0.0203,-0.0204,-0.0204,-0.0205,-0.0275,-0.0277,-0.028,-0.0281,0,0,-0.0287,-0.0288,0,0,0,0,0,0,0,0,-0.0111,-0.0114,-0.0147,-0.015,-0.0153,-0.0186,-0.0185,-0.0212,-0.0203,-0.0182,-0.0205,-0.0205,-0.025,-0.0254,-0.0257,-0.0285,-0.0288,-0.0287,-0.0288,-0.0289,-0.029,0,0,0,0,0,0,0,-0.0109,-0.0112,-0.0144,-0.0148,-0.0152,-0.0166,-0.017,-0.019,-0.021,-0.0184,-0.0187,-0.0195,-0.0251,-0.0255,-0.0259,-0.0289,-0.0287,-0.0289,-0.029,-0.0291,-0.0348,-0.0348,0,0,0,0,0,0,-0.0107,-0.011,-0.0142,-0.0145,-0.0136,-0.0167,-0.0171,-0.0173,-0.021,-0.0216,-0.0195,-0.0197,-0.0251,-0.0256,-0.0262,-0.0281,-0.0289,-0.0291,-0.0293,-0.0348,-0.0348,-0.0348,0,0,0,0,0,0,-0.0105,-0.0109,-0.0141,-0.0131,-0.0137,-0.0167,-0.0168,-0.0173,-0.0186,-0.0218,-0.0225,-0.0204,-0.0251,-0.0259,-0.0288,-0.0283,-0.0292,-0.0294,-0.0348,-0.0348,-0.0348,-0.0309,0,0,0,0,0,0,-0.0104,-0.0108,-0.0106,-0.0131,-0.0137,-0.015,-0.0168,-0.0174,-0.0191,-0.0194,-0.0228,-0.0235,-0.0252,-0.0284,-0.029,-0.0287,-0.0296,-0.0347,-0.0348,-0.0348,-0.031,-0.0308,-0.0306,0,0,0,0,0,-0.0102,-0.0096,-0.0106,-0.011,-0.0134,-0.0151,-0.0154,-0.0177,-0.0191,-0.0191,-0.0221,-0.0234,-0.029,-0.0286,-0.0293,-0.029,-0.0347,-0.0348,-0.0348,-0.0311,-0.0309,-0.0306,0,0,0,0,0,0,-0.0077,-0.0099,-0.0111,-0.0112,-0.0131,-0.0156,-0.016,-0.0178,-0.02,-0.0206,-0.0238,-0.0246,-0.0269,-0.0288,-0.0283,-0.0308,-0.032,-0.0322,-0.029,-0.0288,-0.0285,-0.0269,-0.0298,0,0,0,0,0,-0.007,-0.0072,-0.0098,-0.01,-0.0107,-0.0134,-0.0145,-0.0161,-0.0186,-0.0196,-0.0223,-0.0251,-0.0273,-0.0287,-0.0309,-0.0324,-0.0333,-0.0327,-0.0325,-0.0323,-0.0315,-0.0328,-0.0326,-0.0349,-0.0349,-0.0349,0,0,-0.0063,-0.0075,-0.0077,-0.0095,-0.011,-0.0112,-0.0141,-0.0155,-0.0158,-0.0201,-0.0214,-0.0245,-0.0276,-0.0292,-0.0304,-0.0309,-0.0321,-0.0323,-0.0321,-0.0314,-0.0328,-0.0326,-0.0324,-0.0349,-0.0349,-0.0349,0,0,-0.0043,-0.0057,-0.005,-0.0062,-0.0085,-0.01,-0.0105,-0.0133,-0.0145,-0.0167,-0.0196,-0.0227,-0.0262,-0.028,-0.0295,-0.0295,-0.031,-0.0304,-0.028,-0.0293,-0.0291,-0.0289,-0.0293,-0.0292,-0.0302,-0.0302,-0.0302,0,-0.0033,-0.0029,-0.0051,-0.0048,-0.0053,-0.0092,-0.0085,-0.01,-0.0136,-0.0142,-0.0168,-0.0221,-0.0254,-0.0266,-0.0271,-0.0289,-0.0296,-0.0285,-0.0288,-0.0287,-0.0286,-0.0291,-0.029,-0.03,-0.0301,-0.0301,-0.0301,0,-0.0009,-0.0007,-0.0004,-0.001,-0.0016,-0.002,-0.0043,-0.0053,-0.0081,-0.0102,-0.0129,-0.0178,-0.0208,-0.0226,-0.0253,-0.0259,-0.0265,-0.0283,-0.029,-0.0281,-0.0287,-0.0287,-0.0298,-0.0299,-0.0299,-0.03,0,0,0.0021,0.0015,0.0017,0.0023,0.0003,0.0003,0.0002,-0.0008,-0.0005,-0.0053,-0.0052,-0.0111,-0.0145,-0.0164,-0.0202,-0.0221,-0.0228,-0.0248,-0.0249,-0.0243,-0.0248,-0.0262,-0.0263,-0.0245,-0.0245,-0.0245,-0.0253,0,0.0047,0.0067,0.0056,0.0075,0.0084,0.0058,0.0067,0.0052,0.0025,0.0016,-0.0038,-0.006,-0.0118,-0.0136,-0.0165,-0.0209,-0.0227,-0.0224,-0.0265,-0.0266,-0.0273,-0.0263,-0.0244,-0.0251,-0.0253,-0.0253,-0.0253,0,0.0078,0.0088,0.0114,0.0126,0.0129,0.0136,0.0142,0.014,0.0117,0.0095,0.0057,0.0015,-0.0025,-0.0076,-0.0144,-0.0138,-0.0189,-0.0228,-0.0229,-0.0254,-0.028,-0.0263,-0.0251,-0.0253,-0.0253,-0.0253,-0.0253,0,0.0118,0.013,0.0155,0.0157,0.0164,0.0176,0.0176,0.0165,0.0176,0.0143,0.0143,0.0084,0.0061,-0.0012,-0.0107,-0.0122,-0.0174,-0.0204,-0.0261,-0.0262,-0.026,-0.0262,-0.0246,-0.0246,-0.0246,-0.0246,-0.0246,0,0.0152,0.0173,0.0176,0.0191,0.0227,0.0216,0.0247,0.0236,0.0238,0.0263,0.0184,0.0191,0.0075,0.0026,-0.007,-0.016,-0.0147,-0.0249,-0.0265,-0.0247,-0.0247,-0.0264,-0.0265,-0.0247,-0.0247,-0.0247,-0.0246,0,0.0193,0.0193,0.0224,0.024,0.0247,0.0272,0.0296,0.0321,0.0307,0.0339,0.0334,0.0282,0.0214,0.0099,-0.0009,-0.0102,-0.0193,-0.023,-0.0199,-0.0211,-0.0281,-0.0281,-0.0288,-0.0289,-0.0289,-0.029,-0.029,0,0.0215,0.0236,0.0263,0.0286,0.0294,0.0323,0.0352,0.0353,0.0382,0.04,0.0427,0.0375,0.0345,0.0178,0.0007,-0.0148,-0.0178,-0.0234,-0.027,-0.027,-0.0285,-0.0284,-0.0283,-0.0249,-0.0249,-0.0249,-0.0249,0,0.0259,0.0267,0.0292,0.0339,0.0373,0.0412,0.045,0.0488,0.0505,0.0532,0.0567,0.055,0.0391,0.0236,0.0015,-0.0094,-0.0212,-0.0239,-0.0238,-0.0246,-0.0236,-0.0249,-0.0249,-0.0249,-0.0249,-0.0249,-0.0249,-0.0249,0.0291,0.0317,0.0349,0.0395,0.0437,0.0496,0.0535,0.0583,0.0641,0.0681,0.0671,0.0639,0.0473,0.0184,-0.0001,-0.0207,-0.0205,-0.0278,-0.0278,-0.0277,-0.0275,-0.0267,-0.0285,-0.0285,-0.0285,-0.0286,-0.0286,0,0.033,0.0357,0.0402,0.0455,0.0507,0.0522,0.06,0.0631,0.0701,0.0735,0.0749,0.0596,0.0427,0.0226,-0.0075,-0.0251,-0.0268,-0.0305,-0.0285,-0.0284,-0.0283,-0.0282,-0.0293,-0.0294,-0.0294,-0.0295,0,0,0.0351,0.0398,0.0419,0.0502,0.0542,0.0611,0.0658,0.0697,0.0727,0.0747,0.0735,0.0705,0.048,0.0268,0.0036,-0.0134,-0.0176,-0.0171,-0.0146,-0.0094,-0.0091,-0.0247,-0.0241,0,0,0,0,0]}],[{"header":{"parameterUnit":"m.s-1","parameterCategory":2,"la1":30.2991,"la2":30.254,"lo1":-89.0895,"lo2":-89.0444,"dy":0.0017,"dx":0.0017,"nx":28,"ny":28,"refTime":"2024-02-29T03:00:00:Z","depth":"4","parameterNumber":2,"parameterNumberName":"U-component_of_CURRENTS"},"data":[0,0,0,0,0,0,0,0,0,0,0,0,0,0,0,0,0,0,0,0,0,0,0,0,0,0,0,0,0,0,0,0,0,0,0,0,0,0,0,0,0,0,0,0,0,0,0,0,0,0,0,0,0,0,0,0,0,0,0.1188,0.1188,0,0.1222,0.1222,0.1222,0.1258,0.1259,0.1259,0.126,0.1306,0.1307,0.1307,0,0,0,0,0,0,0,0,0,0,0,0,0,0.1147,0.1147,0.1188,0.1188,0.1188,0.1222,0.1222,0.1222,0.1258,0.1259,0.1259,0.126,0.1306,0.1306,0.1307,0,0,0,0,0,0,0,0,0,0,0,0,0,0.117,0.1148,0.1187,0.1211,0.1213,0.1222,0.1222,0.1223,0.1258,0.1259,0.126,0.126,0.1305,0.1306,0.1307,0.1297,0,0,0.1311,0.1311,0,0,0,0,0,0,0,0,0.1169,0.1172,0.1207,0.1209,0.1212,0.1237,0.1225,0.1248,0.1258,0.124,0.126,0.1261,0.1284,0.1287,0.129,0.1299,0.1301,0.1311,0.1311,0.1312,0.1312,0,0,0,0,0,0,0,0.1167,0.1171,0.12,0.1207,0.121,0.1217,0.1222,0.1229,0.1257,0.1242,0.1245,0.1249,0.1285,0.1289,0.1291,0.1302,0.1311,0.1312,0.1312,0.1313,0.1384,0.1385,0,0,0,0,0,0,0.1164,0.1169,0.1199,0.1201,0.1193,0.1218,0.1222,0.1228,0.1256,0.1262,0.1249,0.1251,0.1287,0.129,0.1293,0.1353,0.1312,0.1313,0.1313,0.1383,0.1384,0.1386,0,0,0,0,0,0,0.1163,0.1166,0.1198,0.1186,0.1191,0.1217,0.1223,0.1228,0.1257,0.1261,0.1267,0.1275,0.1288,0.1292,0.1327,0.1352,0.1313,0.1314,0.1381,0.1383,0.1385,0.1427,0,0,0,0,0,0,0.1162,0.1166,0.1181,0.1186,0.1192,0.1217,0.1223,0.1228,0.1257,0.1261,0.1286,0.1289,0.1289,0.1325,0.1328,0.1353,0.1315,0.138,0.1382,0.1384,0.1424,0.143,0.1435,0,0,0,0,0,0.116,0.1171,0.1182,0.1186,0.1208,0.1217,0.1221,0.1242,0.1258,0.1271,0.1295,0.129,0.1342,0.1327,0.133,0.1356,0.1378,0.1381,0.1384,0.1422,0.1429,0.1435,0,0,0,0,0,0,0.116,0.1176,0.1188,0.1203,0.1218,0.1224,0.1242,0.1255,0.1284,0.1298,0.1304,0.1309,0.135,0.1348,0.1331,0.1384,0.136,0.1364,0.1388,0.1395,0.14,0.1397,0.1316,0,0,0,0,0,0.1167,0.1183,0.1194,0.121,0.1219,0.1236,0.1249,0.1263,0.1282,0.1297,0.1315,0.1338,0.1358,0.1374,0.1387,0.1415,0.1416,0.1434,0.144,0.1445,0.1445,0.1472,0.148,0.1395,0.1395,0.1395,0,0,0.1172,0.1183,0.1193,0.1212,0.1227,0.1241,0.1247,0.1271,0.1292,0.1296,0.1341,0.1359,0.137,0.1404,0.1422,0.1409,0.1472,0.1448,0.1452,0.1449,0.1476,0.1484,0.1491,0.1397,0.1396,0.1396,0,0,0.1178,0.12,0.1213,0.1227,0.1253,0.1261,0.1274,0.1297,0.1321,0.1359,0.137,0.1406,0.1436,0.145,0.1459,0.1504,0.1501,0.1514,0.154,0.1568,0.1575,0.1581,0.16,0.1608,0.1517,0.1517,0.1517,0,0.1186,0.1201,0.1218,0.1233,0.1249,0.1273,0.1289,0.1312,0.1347,0.1371,0.1382,0.1444,0.1456,0.1494,0.1514,0.1516,0.153,0.1513,0.1574,0.158,0.1586,0.1604,0.1612,0.152,0.1519,0.1519,0.1519,0,0.1193,0.1216,0.1225,0.1252,0.1271,0.1291,0.1319,0.1354,0.1389,0.1411,0.147,0.1492,0.1529,0.1542,0.1543,0.1591,0.1588,0.1578,0.1555,0.1597,0.1614,0.1621,0.1523,0.1522,0.1521,0.1521,0,0,0.1178,0.1222,0.1228,0.1249,0.1286,0.13,0.1344,0.1384,0.1424,0.1467,0.1515,0.1558,0.158,0.1592,0.1603,0.1628,0.1683,0.1625,0.1626,0.1641,0.1746,0.1642,0.1639,0.1689,0.169,0.1691,0.1744,0,0.1181,0.1211,0.1233,0.127,0.1287,0.1329,0.1365,0.1409,0.1457,0.151,0.1547,0.1597,0.1596,0.1628,0.1652,0.1679,0.1704,0.1669,0.1706,0.1707,0.1606,0.1644,0.1695,0.175,0.1751,0.1752,0.1753,0,0.1172,0.1198,0.1232,0.1286,0.1299,0.1331,0.1402,0.1439,0.1511,0.1552,0.1607,0.1637,0.1691,0.1681,0.1744,0.1727,0.1741,0.1753,0.1755,0.1645,0.1615,0.1698,0.1766,0.1765,0.1764,0.1763,0.1762,0,0.1142,0.1194,0.1225,0.1243,0.1306,0.1345,0.1387,0.1458,0.1497,0.1588,0.1631,0.169,0.1736,0.1765,0.1796,0.1783,0.1854,0.1835,0.1751,0.1744,0.1803,0.1795,0.1871,0.1871,0.1871,0.1871,0.1871,0,0.1119,0.1147,0.1223,0.124,0.1289,0.1342,0.1403,0.1459,0.1536,0.158,0.1655,0.1693,0.1763,0.1807,0.1819,0.1807,0.1876,0.1758,0.175,0.182,0.1815,0.1808,0.18,0.1873,0.1873,0.1872,0.1872,0,0.1071,0.112,0.1162,0.1244,0.1274,0.1312,0.1401,0.1442,0.1531,0.1593,0.1626,0.1717,0.1774,0.1824,0.1878,0.1829,0.1834,0.1811,0.1892,0.1887,0.1699,0.1693,0.1717,0.1714,0.1711,0.1708,0.1707,0,0.1045,0.1063,0.1154,0.1184,0.1227,0.1293,0.1335,0.1428,0.1468,0.1589,0.1607,0.17,0.1748,0.1739,0.18,0.1815,0.1793,0.1783,0.1725,0.1693,0.1684,0.1682,0.168,0.1702,0.1701,0.1701,0.17,0,0.0994,0.1039,0.1075,0.1138,0.1192,0.1235,0.1306,0.132,0.1425,0.1519,0.155,0.1578,0.1637,0.1669,0.1698,0.1703,0.1781,0.1754,0.1759,0.1704,0.1676,0.1669,0.167,0.169,0.1692,0.1693,0.1693,0,0.096,0.0974,0.1033,0.1077,0.114,0.1162,0.1204,0.1248,0.1293,0.1421,0.1427,0.1527,0.1616,0.1612,0.1637,0.1638,0.1608,0.1549,0.1564,0.1575,0.1504,0.1446,0.1385,0,0,0,0,0,0.0918,0.0926,0.0966,0.1009,0.1068,0.1104,0.1177,0.1221,0.1318,0.1305,0.136,0.1406,0.144,0.149,0.1462,0.158,0.1619,0.1541,0.1559,0.1638,0.1649,0.1577,0,0,0,0,0,0,0.0889,0.0924,0.0939,0.0944,0.0961,0.1013,0.1054,0.1119,0.1113,0.1217,0.1242,0.1326,0.138,0.1444,0.1437,0.1454,0.1437,0.1605,0.1601,0.1631,0.1641,0.165,0.1581,0,0,0,0,0]},{"header":{"parameterUnit":"m.s-1","parameterCategory":2,"la1":30.2991,"la2":30.254,"lo1":-89.0895,"lo2":-89.0444,"dy":0.0017,"dx":0.0017,"nx":28,"ny":28,"refTime":"2024-02-29T03:00:00:Z","depth":"4","parameterNumber":3,"parameterNumberName":"V-component_of_CURRENTS"},"data":[0,0,0,0,0,0,0,0,0,0,0,0,0,0,0,0,0,0,0,0,0,0,0,0,0,0,0,0,0,0,0,0,0,0,0,0,0,0,0,0,0,0,0,0,0,0,0,0,0,0,0,0,0,0,0,0,0,0,0.0088,0.0088,0,0.0078,0.0078,0.0077,0.0063,0.0062,0.0062,0.0062,0.0045,0.0045,0.0045,0,0,0,0,0,0,0,0,0,0,0,0,0,0.0083,0.0083,0.0088,0.0088,0.0088,0.0078,0.0078,0.0077,0.0063,0.0062,0.0062,0.0062,0.0045,0.0045,0.0045,0,0,0,0,0,0,0,0,0,0,0,0,0,0.008,0.0083,0.0088,0.008,0.0079,0.0078,0.0078,0.0077,0.0063,0.0062,0.0062,0.0062,0.0045,0.0045,0.0044,0.0048,0,0,0.0043,0.0043,0,0,0,0,0,0,0,0,0.008,0.008,0.0081,0.008,0.0079,0.0072,0.007,0.0067,0.0063,0.0068,0.0062,0.0062,0.0054,0.0053,0.0051,0.0047,0.0046,0.0043,0.0043,0.0043,0.0043,0,0,0,0,0,0,0,0.008,0.008,0.0083,0.0081,0.008,0.0073,0.0072,0.0069,0.0062,0.0068,0.0067,0.0067,0.0053,0.0051,0.005,0.0046,0.0043,0.0043,0.0043,0.0042,0.0047,0.0047,0,0,0,0,0,0,0.0084,0.008,0.0083,0.0083,0.008,0.0073,0.0072,0.0074,0.0062,0.006,0.0067,0.0066,0.0052,0.0051,0.005,0.006,0.0043,0.0042,0.0042,0.0047,0.0047,0.0048,0,0,0,0,0,0,0.0084,0.0084,0.0084,0.0082,0.0081,0.0074,0.0076,0.0074,0.0072,0.0062,0.006,0.0067,0.0052,0.005,0.0051,0.0059,0.0042,0.0042,0.0046,0.0047,0.0047,0.0076,0,0,0,0,0,0,0.0084,0.0084,0.0088,0.0082,0.0082,0.0088,0.0076,0.0074,0.0073,0.0072,0.0062,0.006,0.0051,0.0052,0.005,0.0058,0.0042,0.0046,0.0047,0.0047,0.0074,0.0077,0.008,0,0,0,0,0,0.0084,0.0092,0.0088,0.0088,0.0086,0.0088,0.0087,0.008,0.0074,0.0077,0.007,0.006,0.0055,0.0052,0.005,0.0058,0.0046,0.0046,0.0047,0.0073,0.0077,0.0079,0,0,0,0,0,0,0.0091,0.0091,0.0087,0.0094,0.0093,0.0086,0.0089,0.0083,0.008,0.0078,0.0066,0.0064,0.0066,0.0059,0.0055,0.0061,0.0049,0.0049,0.0069,0.0072,0.0074,0.0076,0.0041,0,0,0,0,0,0.0094,0.0101,0.0097,0.0103,0.0103,0.0096,0.0096,0.0092,0.0088,0.0086,0.0078,0.0071,0.0068,0.0068,0.0063,0.0068,0.0045,0.0072,0.0074,0.0077,0.0077,0.0048,0.0048,0.005,0.005,0.005,0,0,0.0098,0.01,0.0103,0.0105,0.0103,0.0111,0.0095,0.0099,0.0105,0.0085,0.009,0.008,0.0071,0.0076,0.0076,0.0071,0.0063,0.0078,0.008,0.0078,0.0049,0.0048,0.0048,0.0051,0.0051,0.0051,0,0,0.0113,0.0111,0.0122,0.0123,0.0125,0.0123,0.0125,0.012,0.0117,0.0122,0.0108,0.0103,0.01,0.0094,0.0092,0.0106,0.0077,0.0105,0.0122,0.0094,0.0093,0.0092,0.0058,0.0054,0.0108,0.0108,0.0108,0,0.0117,0.013,0.0125,0.0136,0.0141,0.013,0.0144,0.0142,0.0138,0.0135,0.0129,0.0116,0.011,0.011,0.0116,0.0112,0.0087,0.0111,0.0097,0.0095,0.0094,0.0059,0.0054,0.011,0.011,0.011,0.0109,0,0.0139,0.015,0.0156,0.0168,0.0174,0.0183,0.0181,0.0182,0.0176,0.017,0.0165,0.0151,0.0142,0.0141,0.0135,0.0126,0.0107,0.0101,0.0088,0.0095,0.0058,0.0053,0.0112,0.0111,0.0111,0.0111,0,0,0.0149,0.0168,0.0171,0.0182,0.0191,0.0199,0.0209,0.0213,0.0215,0.0205,0.0203,0.0197,0.0178,0.0174,0.016,0.014,0.011,0.0119,0.0117,0.0084,0.0039,0.0036,0.0029,0.0098,0.0097,0.0097,0.0015,0,0.0168,0.0196,0.0201,0.0229,0.0242,0.0239,0.0251,0.0252,0.0243,0.0237,0.0216,0.021,0.0194,0.0188,0.0166,0.0125,0.0097,0.0132,0.0038,0.0035,0.003,0.0023,0.0095,0.0011,0.0009,0.0008,0.0008,0,0.019,0.0207,0.0236,0.0259,0.0265,0.0281,0.0291,0.0298,0.0285,0.0278,0.0259,0.0236,0.021,0.0194,0.012,0.0141,0.0092,0.0057,0.0053,0.0036,0.0022,0.0002,-0.0003,-0.0002,-0.0001,-0.0001,0.0,0,0.0202,0.0231,0.0257,0.0265,0.0289,0.0301,0.0312,0.031,0.0316,0.0297,0.0294,0.0252,0.0234,0.0169,0.0101,0.0105,0.0012,0.0007,-0.0046,-0.0048,-0.0033,-0.0031,-0.0053,-0.0053,-0.0053,-0.0052,-0.0052,0,0.0221,0.0242,0.0266,0.0281,0.0311,0.0319,0.0342,0.0342,0.0344,0.0353,0.0314,0.0306,0.0226,0.0167,0.0099,0.0009,0.0006,-0.0049,-0.0068,-0.002,-0.0015,-0.0038,-0.0035,-0.0055,-0.0055,-0.0054,-0.0054,0,0.0232,0.0248,0.0278,0.0308,0.032,0.0339,0.0369,0.0381,0.0379,0.0386,0.0383,0.0339,0.0261,0.0173,0.0066,0.0011,-0.0076,-0.0108,-0.0055,-0.0069,-0.0121,-0.0116,-0.0182,-0.0183,-0.0184,-0.0184,-0.0185,0,0.0239,0.0257,0.0296,0.0315,0.0332,0.036,0.0383,0.0397,0.041,0.0408,0.0412,0.0348,0.0305,0.0149,0.0056,-0.0088,-0.0102,-0.0154,-0.0133,-0.0122,-0.0134,-0.0128,-0.0122,-0.0186,-0.0186,-0.0186,-0.0186,0,0.0251,0.0265,0.0289,0.0329,0.0359,0.0391,0.0421,0.0436,0.0451,0.0453,0.0432,0.0358,0.0268,0.0151,0.0038,-0.006,-0.0123,-0.0161,-0.016,-0.0141,-0.0127,-0.0137,-0.013,-0.0188,-0.0188,-0.0188,-0.0188,0,0.0256,0.0272,0.0303,0.0337,0.0376,0.0409,0.0426,0.0444,0.0458,0.046,0.0451,0.0364,0.0314,0.0164,0.0064,-0.0037,-0.0062,-0.0092,-0.0096,-0.0094,-0.0039,-0.0006,-0.0052,0,0,0,0,0,0.0259,0.0275,0.0307,0.0342,0.0382,0.0405,0.0447,0.0461,0.0478,0.0469,0.0463,0.0382,0.0239,0.0177,0.0075,0.0041,-0.0088,-0.0084,-0.0126,-0.0201,-0.0199,-0.0148,0,0,0,0,0,0,0.0258,0.0287,0.0302,0.0341,0.0365,0.0409,0.0438,0.0452,0.0445,0.0451,0.0376,0.0351,0.0208,0.0294,0.0069,0.0039,-0.0002,-0.0148,-0.0151,-0.0203,-0.02,-0.0198,-0.0146,0,0,0,0,0]}]]